Home > Weather > Moose Jaw > Past weeks

Flag for Canada Past Weather in Moose Jaw, Saskatchewan, Canada — Yesterday and Last 2 Weeks

Now
52 °F

Light rain. Overcast.


Feels Like: 51 °F
Forecast: 50 / 65 °F
Wind: 5 mph from Northwest

Location: Moose Jaw

Current Time: May 25, 2016 at 10:55:31 PM

Latest Report: May 25, 2016 at 10:00 PM


Visibility: 10 mi

Pressure: 29.90 "Hg (27.96 "Hg at 560m altitude)

Humidity: 94%

Dew Point: 50 °F

Location of Moose JawLocation

Past Weather in Moose Jaw — Graph

°F

Moose Jaw Temperature Yesterday

Maximum temperature yesterday: 64 °F (at 3:00 PM)
Minimum temperature yesterday: 48 °F (at 11:00 PM)
Average temperature yesterday: 58 °F

High & Low Weather Summary for the Past Weeks

 TemperatureHumidityPressure
High82 °F (May 19, 3:00 PM)100% (May 11, 6:00 AM)30.50 "Hg (May 11, 6:00 AM)
Low30 °F (May 13, 4:00 AM)22% (May 17, 2:00 PM)29.62 "Hg (May 19, 4:00 PM)
Average56 °F59%30.03 "Hg
* Reported May 11 4:00 AM — May 25 9:00 PM, Moose Jaw, Weather by CustomWeather, © 2016

Note: Actual official high and low records may vary slightly from our data, if they occured in-between our weather recording intervals... More about our weather records

Advertising

Moose Jaw Weather History for the Previous 24 Hours

Scroll right to see more
 ConditionsComfort  
Time TempWeatherWind HumidityBarometerVisibility
9:00 PM
Wed, May 25
52 °FLight rain. Fog.6 mph100%29.90 "Hg6 mi
8:00 PM52 °FLight rain. Low clouds.7 mph94%29.92 "Hg8 mi
7:00 PM52 °FLight rain. Mostly cloudy.7 mph94%29.92 "Hg8 mi
6:00 PM54 °FSprinkles. Fog.6 mph88%29.93 "Hg5 mi
5:00 PM54 °FSprinkles. Low clouds.6 mph82%29.93 "Hg12 mi
4:00 PM54 °FSprinkles. Low clouds.6 mph77%29.93 "Hg12 mi
3:00 PM54 °FSprinkles. Low clouds.3 mph88%29.93 "Hg10 mi
2:00 PM54 °FSprinkles. Low clouds.No wind88%29.94 "Hg7 mi
1:00 PM52 °FSprinkles. Overcast.3 mph94%29.95 "Hg8 mi
12:00 PM55 °FSprinkles. Mostly cloudy.6 mph72%29.94 "Hg15 mi
11:47 AM55 °FSprinkles. Mostly cloudy.6 mph72%29.93 "Hg15 mi
11:00 AM55 °FPartly sunny.3 mph77%29.93 "Hg15 mi
1:00 AM45 °FClear.7 mph93%29.92 "Hg15 mi
12:00 AM46 °FPassing clouds.2 mph87%29.92 "Hg15 mi
11:00 PM
Tue, May 24
48 °FPassing clouds.6 mph87%29.91 "Hg15 mi
10:00 PM50 °FPassing clouds.7 mph82%29.90 "Hg15 mi
Weather by CustomWeather, © 2016

See weather overviewHow to use our weather pages